SCP
0 0 0 0 0 0 0 -0 -0 -0 -0 -0 -0 -0 -0 -0 0 0 -0 -0 -0 -0 -0 -0 -0 -0 -0 -0 -0 0 0 0 0 0 0 -0 0 0 0 0 0 0 0 0 0 0 0
0 0 0 0 0 0 0 -0 -0 -0 -0 -0 -0 -0 -0 -0 -0 0 -0 -0 0 -0 -0 -0 -0 -0 -0 -0 0 -0 0 0 0 0 0 0 -0 -0 -0 0 0 0 0 0 0 0 0
0 0 0 0 0 0 0 -0 -0 -0 -0 -0 -0 -0 0 -0 0 0 0 0 0 -0 -0 -0 -0 0 -0 -0 0 0 0 0 0 0 0 0 -0 0 -0 -0 0 0 0 0 0 0 0
0 0 0 0 0 0 0 -0 -0 -0 -0 -0 -0 -0 -0 -0 -0 -0 0 0 0 0 -0 0 0 0 -0 0 0 0 0 0 0 0 0 0 -0 -0 0 -0 0 0 0 0 0 0 0
0 0 0 0 0 0 0 0 -0 -0 -0 -0 -0 -0 -0 -0 -0 -0 0 0 -0 0 -0 -0 0 0 0 0 0 0 0 0 0 0 0 -0 -0 -0 -0 0 0 0 0 0 0 0 0
0 0 0 0 0 0 0 0 0 -0 -0 -0 -0 -0 -0 -0 -0 -0 0 -0 -0 -0 -0 0 0 0 0 0 0 0 0 0 0 0 0 0 -0 -0 0 0 0 0 0 0 0 0 0
0 0 0 0 0 0 0 0 0 0 -0 -0 -0 -0 -0 -0 -0 -0 0 -0 0 0 0 0 0 0 0 0 0 0 0 0 0 0 -0 -0 0 -0 -0 -0 0 0 0 0 0 0 0
0 0 0 0 0 0 0 0 0 0 0 -0 -0 -0 -0 -0 -0 0 -0 -0 -0 0 0 0 0 0 0 0 0 0 0 0 0 -0 0 -0 -0 -0 0 0 0 0 0 0 0 0 0
0 0 0 0 0 0 0 0 0 0 0 -0 -0 -0 -0 -0 0 -0 -0 -0 0 -0 0 0 0 0 0 0 0 0 0 0 0 -0 -0 -0 -0 0 -0 -0 -0 0 0 0 0 0 0
0 0 0 0 0 0 0 0 0 0 0 0 -0 -0 -0 -0 -0 0 -0 -0 -0 -0 0 0 0 0 0 0 0 0 0 0 0 -0 -0 -0 0 -0 -0 0 0 0 0 0 0 0 0
0 0 0 0 0 0 0 0 0 0 0 0 0 -0 -0 -0 -0 0 0 -0 -0 0 0 0 0 0 0 0 0 0 0 0 0 0 0 0 0 -0 0 -0 0 0 0 0 0 0 0
0 0 0 0 0 0 0 0 0 0 0 0 0 0 -0 -0 -0 -0 -0 -0 -0 0 0 0 0 0 0 0 0 0 0 0 0 0 0 0 -0 0 0 -0 0 -0 0 0 0 0 0
0 0 0 0 0 0 0 0 0 0 0 0 0 0 0 0 0 -0 -0 0 0 0 0 0 0 0 0 0 0 0 0 0 0 0 0 0 0 0 -0 -0 0 0 0 0 0 0 0
0 0 0 0 0 0 0 0 0 0 0 0 0 0 0 0 0 0 0 0 0 0 0 0 0 0 0 0 0 0 0 0 0 0 0 0 0 0 0 0 0 0 0 0 0 0 0
0 0 0 0 0 0 0 0 0 0 0 0 0 0 0 0 0 0 0 0 0 0 0 0 0 0 0 0 0 0 0 0 0 0 0 0 0 0 0 0 0 0 0 0 0 0 0
0 0 0 0 0 0 0 0 0 0 0 0 0 0 0 0 0 0 0 0 0 0 0 0 0 0 0 0 0 0 0 0 0 0 0 0 0 0 0 0 0 0 0 0 0 0 0
0 0 0 0 0 0 0 0 0 0 0 0 0 0 0 0 0 0 0 0 0 0 0 0 0 0 0 0 0 0 0 0 0 0 0 0 0 0 0 0 0 0 0 0 0 0 0
0 0 0 0 0 0 0 0 0 0 0 0 0 0 0 0 0 0 0 0 0 0 0 0 0 0 0 0 0 0 0 0 0 0 0 0 0 0 0 0 0 0 0 0 0 0 0
0 0 0 0 0 0 0 0 0 0 0 0 0 0 0 0 0 0 0 0 0 0 0 0 0 0 0 0 0 0 0 0 0 0 0 0 0 0 0 0 0 0 0 0 0 0 0
0 0 0 0 0 0 0 0 0 0 0 0 0 0 0 0 0 0 0 0 0 0 0 0 0 0 0 0 0 0 0 0 0 0 0 0 0 0 0 0 0 0 0 0 0 0 0
0 0 0 0 0 0 0 0 0 0 0 0 0 0 0 0 0 0 0 0 0 0 0 0 0 0 0 0 0 0 0 0 0 0 0 0 0 0 0 0 0 0 0 0 0 0 0
0 0 0 0 0 0 0 0 0 0 0 0 0 0 0 0 0 0 0 0 0 0 0 0 0 0 0 0 0 0 0 0 0 0 0 0 0 0 0 0 0 0 0 0 0 0 0
0 0 0 0 0 0 0 0 0 0 0 0 0 0 0 0 0 0 0 0 0 0 0 0 0 0 0 0 0 0 0 0 0 0 0 0 0 0 0 0 0 0 0 0 0 0 0
0 0 0 0 0 0 0 0 0 0 0 0 0 0 0 0 0 0 0 0 0 0 0 0 0 0 0 0 0 0 0 0 0 0 0 0 0 0 0 0 0 0 0 0 0 0 0
0 0 0 0 0 0 0 0 0 0 0 0 0 0 0 0 0 0 0 0 0 0 0 0 0 0 0 0 0 0 0 0 0 0 0 0 0 0 0 0 0 0 0 0 0 0 0
0 0 0 0 0 0 0 0 0 0 0 0 0 0 0 0 0 0 0 0 0 0 0 0 0 0 0 0 0 0 0 0 0 0 0 0 0 0 0 0 0 0 0 0 0 0 0
0 0 0 0 0 0 0 0 0 0 0 0 0 0 0 0 0 0 0 0 0 0 0 0 0 1 0 0 0 0 0 0 0 0 0 0 0 0 0 0 0 0 0 0 0 0 0
0 0 0 0 0 0 0 0 0 0 0 0 0 0 0 0 0 0 0 0 0 0 0 0 0 0 0 1 0 0 0 0 0 0 0 0 0 1 0 0 0 0 0 0 0 0 0
0 0 0 0 0 0 0 0 0 0 0 0 0 0 0 0 0 0 0 0 0 0 0 0 0 1 1 0 0 0 0 0 0 0 0 0 0 0 0 0 0 0 0 0 0 0 0
Wind_Speed_500mb
32 30 29 26 22 20 17 16 16 15 18 23 28 31 36 41 42 43 43 43 38 28 20 18 13 8 8 12 11 21 24 24 20 14 14 9 19 18 18 23 33 23 22 20 18 33 39
33 31 29 27 24 22 19 15 16 16 18 22 27 31 35 42 43 44 44 42 35 24 18 14 10 4 10 8 12 15 24 27 23 20 17 19 26 39 29 9 8 24 48 38 26 30 20
34 31 30 28 25 23 21 17 16 16 17 21 25 29 35 41 43 44 44 40 29 22 16 10 6 1 11 12 10 9 18 26 23 17 13 17 12 9 19 32 37 46 30 27 20 11 14
34 32 30 29 26 24 22 19 17 17 16 20 25 29 35 39 41 43 41 37 22 22 11 12 4 5 8 16 7 4 10 24 22 13 10 16 33 35 14 50 21 11 11 11 7 8 6
33 33 30 29 28 24 22 20 17 17 16 18 24 28 33 37 39 40 37 34 27 10 9 10 5 7 9 8 6 9 15 19 17 12 10 19 23 28 28 21 12 5 5 8 11 5 2
32 32 31 29 28 25 21 20 18 16 14 16 22 28 31 34 38 35 37 33 26 3 21 6 9 9 9 2 3 16 22 21 11 17 17 9 11 12 11 13 12 12 9 7 9 7 4
31 31 30 29 28 25 21 19 17 16 14 15 19 25 30 32 33 26 32 25 26 4 22 4 11 7 1 7 10 18 23 19 13 9 7 5 12 12 25 28 5 6 13 17 4 6 3
30 30 30 28 28 25 21 18 16 15 15 15 17 23 29 31 30 18 23 32 28 19 15 16 5 7 4 5 9 23 23 13 7 7 7 6 3 3 11 9 14 18 28 12 10 4 1
28 29 30 27 27 25 21 18 15 14 15 16 18 22 28 30 23 16 15 32 34 23 5 11 5 2 6 8 7 23 28 14 9 7 6 6 6 2 11 24 26 11 7 17 10 13 13
28 29 29 27 27 24 21 18 15 14 14 15 18 22 27 30 10 21 8 29 31 22 5 7 2 2 6 6 5 20 23 9 5 12 10 4 3 12 19 10 3 9 4 19 27 10 2
27 29 30 28 26 24 20 18 15 13 14 16 18 22 25 26 24 18 14 25 26 12 4 4 2 1 1 4 10 14 19 5 10 9 8 4 4 7 7 5 5 8 20 23 12 7 4
27 28 30 28 26 23 20 17 14 13 13 16 19 22 25 27 22 14 16 22 15 4 6 3 3 2 5 3 2 10 8 5 7 4 5 5 3 6 9 18 11 38 21 12 7 2 6
28 28 29 28 26 23 19 16 13 12 13 16 19 23 25 26 23 19 14 14 1 3 5 9 4 1 3 4 3 7 9 8 6 6 5 6 6 8 32 24 15 6 12 4 4 6 3
30 30 29 28 25 23 19 15 12 10 12 16 21 23 24 21 16 11 8 4 2 2 5 5 5 1 6 2 3 4 11 12 4 6 6 4 6 13 9 5 12 27 5 6 7 5 3
30 31 29 27 25 22 18 14 10 8 10 16 20 22 19 14 8 2 1 2 1 3 6 13 5 3 2 1 1 3 8 13 9 10 6 7 5 2 2 9 10 12 11 5 11 2 6
30 30 30 28 26 23 18 13 9 7 10 16 19 18 8 3 6 4 4 3 4 6 9 3 2 1 9 5 3 2 11 8 7 10 2 10 6 3 7 9 18 5 16 4 3 1 3
32 30 30 28 26 23 19 13 9 8 9 13 14 6 3 4 8 2 2 5 8 12 10 4 3 2 2 3 5 4 8 4 5 10 7 9 3 5 6 5 10 8 6 9 5 4 3
32 31 29 28 25 22 18 14 9 7 8 8 6 1 2 15 4 4 2 4 8 9 6 5 2 3 1 4 5 4 7 5 9 17 13 4 6 6 5 2 3 1 3 9 5 4 1
34 32 29 27 24 21 17 13 9 6 6 4 3 1 8 11 4 1 4 5 7 6 6 5 4 3 1 4 4 6 6 1 12 13 13 14 2 5 3 3 3 7 6 7 9 4 10
33 32 29 26 23 20 16 13 10 8 6 4 3 3 4 5 7 6 3 4 8 11 9 8 6 4 3 2 1 1 5 4 6 6 11 16 6 7 13 3 4 6 8 11 6 7 9
35 31 28 25 21 18 14 12 9 10 9 8 5 3 5 4 4 5 1 3 6 10 6 6 2 0 2 1 2 4 3 1 5 12 7 2 5 5 3 2 4 8 9 18 20 14 13
34 31 29 26 21 16 12 10 10 11 13 14 7 7 8 6 5 7 2 5 5 8 7 4 0 11 2 2 1 4 1 4 4 6 5 2 5 3 5 4 2 7 6 11 19 9 19
35 31 28 25 20 15 10 9 10 12 16 10 14 10 7 3 6 5 6 7 8 4 12 21 11 10 8 3 8 2 1 5 4 4 4 3 9 4 5 5 3 9 6 7 7 8 7
36 32 28 24 20 15 11 9 8 9 15 15 15 13 7 6 6 7 7 10 12 13 10 12 13 6 2 3 15 18 28 21 17 17 5 8 8 2 2 1 6 4 5 12 16 15 17
38 32 28 24 20 16 12 8 8 9 12 13 15 13 9 5 5 7 10 11 17 11 10 17 12 10 20 6 5 3 1 3 9 13 8 1 9 6 4 4 8 2 3 2 4 6 7
39 34 29 25 21 16 13 10 8 10 12 11 10 17 10 7 9 6 6 5 4 3 5 10 12 10 7 4 3 7 6 1 2 2 8 12 9 3 6 5 7 6 5 11 13 8 7
41 35 30 25 21 17 14 10 8 9 12 11 8 5 12 6 8 8 6 4 4 2 5 8 11 3 1 4 4 4 6 1 6 6 6 3 3 7 6 6 8 7 3 0 8 5 10
42 36 30 26 21 18 15 11 8 7 8 10 9 5 9 8 8 10 5 4 3 2 2 7 5 0 2 5 5 6 5 6 4 2 5 8 10 6 5 4 9 3 7 5 4 10 7
42 36 31 26 22 18 16 12 9 7 7 8 4 6 12 14 8 16 11 6 4 2 5 5 3 3 1 6 2 6 5 4 3 6 4 6 5 3 12 2 3 9 5 8 11 15 18
Wind_Direction_500mb
249 249 251 256 260 267 277 288 301 317 328 337 341 347 353 352 351 348 348 344 347 346 353 351 6 46 106 102 112 160 164 147 136 102 72 115 126 116 94 105 86 94 106 80 105 99 94
250 248 248 250 253 260 267 280 291 304 318 332 334 340 349 348 348 348 343 340 340 340 343 348 2 59 123 107 122 148 153 142 137 112 83 78 90 117 100 88 67 115 113 115 108 102 101
249 248 248 247 248 254 262 272 281 292 312 321 326 336 346 346 347 348 338 337 336 339 341 350 359 30 155 133 137 129 143 147 143 125 95 64 98 160 105 98 117 125 109 116 137 118 111
245 247 246 247 246 250 257 263 275 286 303 314 322 337 342 345 347 346 337 339 338 342 358 353 353 137 144 154 150 184 158 160 147 141 98 78 103 98 93 122 129 129 145 140 135 158 72
243 243 244 244 245 244 251 259 269 280 294 309 320 336 341 345 346 344 338 340 336 341 12 359 110 108 129 156 184 197 158 155 145 147 124 104 92 103 132 139 142 195 167 142 158 238 151
243 240 242 242 244 241 243 253 265 277 293 311 320 333 340 346 345 347 347 340 330 344 345 71 86 121 125 149 267 185 169 153 139 135 109 127 108 137 154 204 260 200 187 160 179 165 150
241 240 237 240 242 241 238 243 258 276 295 308 318 332 340 346 346 348 3 16 14 18 352 22 309 286 339 356 169 179 173 160 145 164 135 48 157 178 195 238 291 229 147 125 93 65 117
238 237 235 235 239 239 235 235 247 265 287 305 319 331 338 345 344 353 8 36 18 326 312 316 301 253 287 123 125 156 163 158 157 147 134 141 79 155 131 165 153 151 131 113 110 55 156
234 233 232 230 234 235 234 231 239 255 276 298 320 330 336 345 347 357 0 8 356 344 297 306 302 239 133 117 132 162 171 164 144 129 160 138 67 273 138 134 108 123 135 165 136 119 72
227 227 227 226 228 229 229 227 232 246 268 292 314 326 334 348 347 355 353 346 346 341 6 332 306 99 180 165 117 160 180 172 129 170 179 121 72 96 107 108 142 154 202 142 134 178 155
220 220 222 221 223 221 222 223 229 242 265 288 307 322 331 348 338 344 328 330 335 334 84 324 273 331 205 198 141 180 185 150 162 176 198 79 36 130 107 57 87 97 138 119 122 91 167
212 214 216 214 217 215 213 216 226 243 267 287 303 319 326 335 338 333 327 324 325 281 62 28 300 168 123 336 80 144 156 155 121 116 47 61 81 47 82 54 126 135 114 87 98 113 266
204 207 210 208 209 209 207 209 221 243 272 291 303 316 321 329 323 319 320 333 324 40 317 358 358 343 134 170 162 156 150 147 167 161 53 63 35 68 126 102 128 154 153 131 241 216 260
201 199 203 203 201 205 203 203 217 243 277 297 306 315 319 320 322 314 328 45 78 350 338 349 351 97 176 170 100 129 134 174 171 101 108 126 136 182 166 185 185 177 222 267 273 237 77
203 194 196 198 196 198 202 203 216 250 286 303 310 317 317 313 317 230 355 61 187 197 309 325 313 141 134 158 162 127 164 187 209 176 150 159 197 197 313 145 160 175 212 90 107 13 243
202 196 190 193 194 192 197 203 221 258 291 306 314 319 318 2 146 147 84 225 265 241 311 275 48 63 177 166 168 153 174 178 204 184 233 181 152 182 163 126 57 221 132 190 130 157 294
196 196 191 190 193 190 192 199 226 264 290 308 316 301 309 130 131 79 177 242 275 271 265 259 341 45 99 222 207 200 181 161 194 148 123 144 187 156 209 206 179 153 170 73 91 317 265
192 193 194 189 189 193 193 196 217 259 287 307 292 271 316 155 66 47 170 218 312 284 281 272 247 259 208 147 214 237 223 242 175 156 155 136 128 199 178 62 341 111 165 166 246 207 88
189 191 194 191 187 190 196 200 208 236 272 308 260 150 166 167 150 126 294 283 266 296 303 315 288 225 186 186 200 225 247 113 220 160 161 178 144 134 120 173 132 229 168 129 110 145 189
189 188 191 194 190 190 197 202 209 215 236 231 238 148 106 180 122 122 30 327 307 314 271 274 272 237 198 70 61 227 238 334 128 142 136 144 136 179 210 152 125 199 200 187 190 217 194
187 188 188 192 193 193 197 203 205 214 207 196 197 149 154 163 179 138 165 343 314 320 282 278 237 252 339 21 179 184 154 175 64 129 81 113 149 182 154 171 223 257 227 196 210 234 229
187 186 187 187 193 195 196 195 200 209 196 198 184 164 149 115 126 135 162 213 230 259 235 265 254 345 310 274 298 357 163 190 190 157 114 112 136 176 139 85 6 263 251 234 241 224 250
185 184 185 187 186 192 190 190 197 198 187 182 193 171 144 156 134 173 200 213 237 237 259 253 305 322 286 294 334 284 270 86 54 127 126 86 138 131 227 346 326 269 277 240 233 238 236
184 183 184 183 182 184 186 191 192 183 189 194 192 174 157 152 203 202 195 211 255 249 264 307 302 208 255 305 114 86 78 89 74 55 80 127 104 57 167 234 234 14 334 276 263 268 212
182 181 182 181 179 177 178 175 168 162 169 188 195 182 180 162 206 224 217 240 284 263 241 251 257 261 285 184 156 110 67 215 43 33 27 352 134 115 217 223 315 226 157 234 221 343 191
180 179 180 178 176 172 171 166 161 165 162 160 169 196 186 154 217 216 216 223 284 317 253 241 255 300 190 103 109 163 214 308 262 122 67 75 71 190 162 208 257 227 231 225 175 258 193
178 177 177 176 173 171 167 162 151 158 174 172 149 153 191 208 207 192 208 212 184 194 264 304 326 276 46 122 106 158 181 194 218 221 183 116 40 182 158 219 267 278 207 311 234 8 335
176 174 174 173 171 170 169 160 144 141 162 175 193 231 212 222 220 206 189 179 163 96 315 338 271 196 26 95 150 164 182 169 207 241 226 203 167 171 125 192 273 141 162 242 117 117 342
173 172 172 170 167 169 170 164 154 144 139 147 173 267 231 216 226 210 205 226 252 6 352 332 290 282 355 100 162 126 149 164 205 229 173 225 244 260 203 205 237 195 213 293 266 253 261
Wind_Speed_850mb
32 30 29 26 22 20 17 16 16 15 18 23 28 31 36 41 42 43 43 43 38 28 20 18 13 8 8 12 11 21 24 24 20 14 14 9 19 18 18 23 33 23 22 20 18 33 39
33 31 29 27 24 22 19 15 16 16 18 22 27 31 35 42 43 44 44 42 35 24 18 14 10 4 10 8 12 15 24 27 23 20 17 19 26 39 29 9 8 24 48 38 26 30 20
34 31 30 28 25 23 21 17 16 16 17 21 25 29 35 41 43 44 44 40 29 22 16 10 6 1 11 12 10 9 18 26 23 17 13 17 12 9 19 32 37 46 30 27 20 11 14
34 32 30 29 26 24 22 19 17 17 16 20 25 29 35 39 41 43 41 37 22 22 11 12 4 5 8 16 7 4 10 24 22 13 10 16 33 35 14 50 21 11 11 11 7 8 6
33 33 30 29 28 24 22 20 17 17 16 18 24 28 33 37 39 40 37 34 27 10 9 10 5 7 9 8 6 9 15 19 17 12 10 19 23 28 28 21 12 5 5 8 11 5 2
32 32 31 29 28 25 21 20 18 16 14 16 22 28 31 34 38 35 37 33 26 3 21 6 9 9 9 2 3 16 22 21 11 17 17 9 11 12 11 13 12 12 9 7 9 7 4
31 31 30 29 28 25 21 19 17 16 14 15 19 25 30 32 33 26 32 25 26 4 22 4 11 7 1 7 10 18 23 19 13 9 7 5 12 12 25 28 5 6 13 17 4 6 3
30 30 30 28 28 25 21 18 16 15 15 15 17 23 29 31 30 18 23 32 28 19 15 16 5 7 4 5 9 23 23 13 7 7 7 6 3 3 11 9 14 18 28 12 10 4 1
28 29 30 27 27 25 21 18 15 14 15 16 18 22 28 30 23 16 15 32 34 23 5 11 5 2 6 8 7 23 28 14 9 7 6 6 6 2 11 24 26 11 7 17 10 13 13
28 29 29 27 27 24 21 18 15 14 14 15 18 22 27 30 10 21 8 29 31 22 5 7 2 2 6 6 5 20 23 9 5 12 10 4 3 12 19 10 3 9 4 19 27 10 2
27 29 30 28 26 24 20 18 15 13 14 16 18 22 25 26 24 18 14 25 26 12 4 4 2 1 1 4 10 14 19 5 10 9 8 4 4 7 7 5 5 8 20 23 12 7 4
27 28 30 28 26 23 20 17 14 13 13 16 19 22 25 27 22 14 16 22 15 4 6 3 3 2 5 3 2 10 8 5 7 4 5 5 3 6 9 18 11 38 21 12 7 2 6
28 28 29 28 26 23 19 16 13 12 13 16 19 23 25 26 23 19 14 14 1 3 5 9 4 1 3 4 3 7 9 8 6 6 5 6 6 8 32 24 15 6 12 4 4 6 3
30 30 29 28 25 23 19 15 12 10 12 16 21 23 24 21 16 11 8 4 2 2 5 5 5 1 6 2 3 4 11 12 4 6 6 4 6 13 9 5 12 27 5 6 7 5 3
30 31 29 27 25 22 18 14 10 8 10 16 20 22 19 14 8 2 1 2 1 3 6 13 5 3 2 1 1 3 8 13 9 10 6 7 5 2 2 9 10 12 11 5 11 2 6
30 30 30 28 26 23 18 13 9 7 10 16 19 18 8 3 6 4 4 3 4 6 9 3 2 1 9 5 3 2 11 8 7 10 2 10 6 3 7 9 18 5 16 4 3 1 3
32 30 30 28 26 23 19 13 9 8 9 13 14 6 3 4 8 2 2 5 8 12 10 4 3 2 2 3 5 4 8 4 5 10 7 9 3 5 6 5 10 8 6 9 5 4 3
32 31 29 28 25 22 18 14 9 7 8 8 6 1 2 15 4 4 2 4 8 9 6 5 2 3 1 4 5 4 7 5 9 17 13 4 6 6 5 2 3 1 3 9 5 4 1
34 32 29 27 24 21 17 13 9 6 6 4 3 1 8 11 4 1 4 5 7 6 6 5 4 3 1 4 4 6 6 1 12 13 13 14 2 5 3 3 3 7 6 7 9 4 10
33 32 29 26 23 20 16 13 10 8 6 4 3 3 4 5 7 6 3 4 8 11 9 8 6 4 3 2 1 1 5 4 6 6 11 16 6 7 13 3 4 6 8 11 6 7 9
35 31 28 25 21 18 14 12 9 10 9 8 5 3 5 4 4 5 1 3 6 10 6 6 2 0 2 1 2 4 3 1 5 12 7 2 5 5 3 2 4 8 9 18 20 14 13
34 31 29 26 21 16 12 10 10 11 13 14 7 7 8 6 5 7 2 5 5 8 7 4 0 11 2 2 1 4 1 4 4 6 5 2 5 3 5 4 2 7 6 11 19 9 19
35 31 28 25 20 15 10 9 10 12 16 10 14 10 7 3 6 5 6 7 8 4 12 21 11 10 8 3 8 2 1 5 4 4 4 3 9 4 5 5 3 9 6 7 7 8 7
36 32 28 24 20 15 11 9 8 9 15 15 15 13 7 6 6 7 7 10 12 13 10 12 13 6 2 3 15 18 28 21 17 17 5 8 8 2 2 1 6 4 5 12 16 15 17
38 32 28 24 20 16 12 8 8 9 12 13 15 13 9 5 5 7 10 11 17 11 10 17 12 10 20 6 5 3 1 3 9 13 8 1 9 6 4 4 8 2 3 2 4 6 7
39 34 29 25 21 16 13 10 8 10 12 11 10 17 10 7 9 6 6 5 4 3 5 10 12 10 7 4 3 7 6 1 2 2 8 12 9 3 6 5 7 6 5 11 13 8 7
41 35 30 25 21 17 14 10 8 9 12 11 8 5 12 6 8 8 6 4 4 2 5 8 11 3 1 4 4 4 6 1 6 6 6 3 3 7 6 6 8 7 3 0 8 5 10
42 36 30 26 21 18 15 11 8 7 8 10 9 5 9 8 8 10 5 4 3 2 2 7 5 0 2 5 5 6 5 6 4 2 5 8 10 6 5 4 9 3 7 5 4 10 7
42 36 31 26 22 18 16 12 9 7 7 8 4 6 12 14 8 16 11 6 4 2 5 5 3 3 1 6 2 6 5 4 3 6 4 6 5 3 12 2 3 9 5 8 11 15 18
Wind_Direction_850mb
249 249 251 256 260 267 277 288 301 317 328 337 341 347 353 352 351 348 348 344 347 346 353 351 6 46 106 102 112 160 164 147 136 102 72 115 126 116 94 105 86 94 106 80 105 99 94
250 248 248 250 253 260 267 280 291 304 318 332 334 340 349 348 348 348 343 340 340 340 343 348 2 59 123 107 122 148 153 142 137 112 83 78 90 117 100 88 67 115 113 115 108 102 101
249 248 248 247 248 254 262 272 281 292 312 321 326 336 346 346 347 348 338 337 336 339 341 350 359 30 155 133 137 129 143 147 143 125 95 64 98 160 105 98 117 125 109 116 137 118 111
245 247 246 247 246 250 257 263 275 286 303 314 322 337 342 345 347 346 337 339 338 342 358 353 353 137 144 154 150 184 158 160 147 141 98 78 103 98 93 122 129 129 145 140 135 158 72
243 243 244 244 245 244 251 259 269 280 294 309 320 336 341 345 346 344 338 340 336 341 12 359 110 108 129 156 184 197 158 155 145 147 124 104 92 103 132 139 142 195 167 142 158 238 151
243 240 242 242 244 241 243 253 265 277 293 311 320 333 340 346 345 347 347 340 330 344 345 71 86 121 125 149 267 185 169 153 139 135 109 127 108 137 154 204 260 200 187 160 179 165 150
241 240 237 240 242 241 238 243 258 276 295 308 318 332 340 346 346 348 3 16 14 18 352 22 309 286 339 356 169 179 173 160 145 164 135 48 157 178 195 238 291 229 147 125 93 65 117
238 237 235 235 239 239 235 235 247 265 287 305 319 331 338 345 344 353 8 36 18 326 312 316 301 253 287 123 125 156 163 158 157 147 134 141 79 155 131 165 153 151 131 113 110 55 156
234 233 232 230 234 235 234 231 239 255 276 298 320 330 336 345 347 357 0 8 356 344 297 306 302 239 133 117 132 162 171 164 144 129 160 138 67 273 138 134 108 123 135 165 136 119 72
227 227 227 226 228 229 229 227 232 246 268 292 314 326 334 348 347 355 353 346 346 341 6 332 306 99 180 165 117 160 180 172 129 170 179 121 72 96 107 108 142 154 202 142 134 178 155
220 220 222 221 223 221 222 223 229 242 265 288 307 322 331 348 338 344 328 330 335 334 84 324 273 331 205 198 141 180 185 150 162 176 198 79 36 130 107 57 87 97 138 119 122 91 167
212 214 216 214 217 215 213 216 226 243 267 287 303 319 326 335 338 333 327 324 325 281 62 28 300 168 123 336 80 144 156 155 121 116 47 61 81 47 82 54 126 135 114 87 98 113 266
204 207 210 208 209 209 207 209 221 243 272 291 303 316 321 329 323 319 320 333 324 40 317 358 358 343 134 170 162 156 150 147 167 161 53 63 35 68 126 102 128 154 153 131 241 216 260
201 199 203 203 201 205 203 203 217 243 277 297 306 315 319 320 322 314 328 45 78 350 338 349 351 97 176 170 100 129 134 174 171 101 108 126 136 182 166 185 185 177 222 267 273 237 77
203 194 196 198 196 198 202 203 216 250 286 303 310 317 317 313 317 230 355 61 187 197 309 325 313 141 134 158 162 127 164 187 209 176 150 159 197 197 313 145 160 175 212 90 107 13 243
202 196 190 193 194 192 197 203 221 258 291 306 314 319 318 2 146 147 84 225 265 241 311 275 48 63 177 166 168 153 174 178 204 184 233 181 152 182 163 126 57 221 132 190 130 157 294
196 196 191 190 193 190 192 199 226 264 290 308 316 301 309 130 131 79 177 242 275 271 265 259 341 45 99 222 207 200 181 161 194 148 123 144 187 156 209 206 179 153 170 73 91 317 265
192 193 194 189 189 193 193 196 217 259 287 307 292 271 316 155 66 47 170 218 312 284 281 272 247 259 208 147 214 237 223 242 175 156 155 136 128 199 178 62 341 111 165 166 246 207 88
189 191 194 191 187 190 196 200 208 236 272 308 260 150 166 167 150 126 294 283 266 296 303 315 288 225 186 186 200 225 247 113 220 160 161 178 144 134 120 173 132 229 168 129 110 145 189
189 188 191 194 190 190 197 202 209 215 236 231 238 148 106 180 122 122 30 327 307 314 271 274 272 237 198 70 61 227 238 334 128 142 136 144 136 179 210 152 125 199 200 187 190 217 194
187 188 188 192 193 193 197 203 205 214 207 196 197 149 154 163 179 138 165 343 314 320 282 278 237 252 339 21 179 184 154 175 64 129 81 113 149 182 154 171 223 257 227 196 210 234 229
187 186 187 187 193 195 196 195 200 209 196 198 184 164 149 115 126 135 162 213 230 259 235 265 254 345 310 274 298 357 163 190 190 157 114 112 136 176 139 85 6 263 251 234 241 224 250
185 184 185 187 186 192 190 190 197 198 187 182 193 171 144 156 134 173 200 213 237 237 259 253 305 322 286 294 334 284 270 86 54 127 126 86 138 131 227 346 326 269 277 240 233 238 236
184 183 184 183 182 184 186 191 192 183 189 194 192 174 157 152 203 202 195 211 255 249 264 307 302 208 255 305 114 86 78 89 74 55 80 127 104 57 167 234 234 14 334 276 263 268 212
182 181 182 181 179 177 178 175 168 162 169 188 195 182 180 162 206 224 217 240 284 263 241 251 257 261 285 184 156 110 67 215 43 33 27 352 134 115 217 223 315 226 157 234 221 343 191
180 179 180 178 176 172 171 166 161 165 162 160 169 196 186 154 217 216 216 223 284 317 253 241 255 300 190 103 109 163 214 308 262 122 67 75 71 190 162 208 257 227 231 225 175 258 193
178 177 177 176 173 171 167 162 151 158 174 172 149 153 191 208 207 192 208 212 184 194 264 304 326 276 46 122 106 158 181 194 218 221 183 116 40 182 158 219 267 278 207 311 234 8 335
176 174 174 173 171 170 169 160 144 141 162 175 193 231 212 222 220 206 189 179 163 96 315 338 271 196 26 95 150 164 182 169 207 241 226 203 167 171 125 192 273 141 162 242 117 117 342
173 172 172 170 167 169 170 164 154 144 139 147 173 267 231 216 226 210 205 226 252 6 352 332 290 282 355 100 162 126 149 164 205 229 173 225 244 260 203 205 237 195 213 293 266 253 261